Location: Hannover
(52.3723°N, 9.7339°E)
Time: 06:07:29
(UTC+01:00)

Envisat - Visible Passes

Search period start: 19 November 2017 00:00
Search period end: 29 November 2017 00:00
Orbit: 764 x 766 km, 98.2° (Epoch: 18 November)

Date Brightness Start Highest point End Pass type
(mag) Time Alt. Az. Time Alt. Az. Time Alt. Az.
19 Nov 4.7 18:09:40 16° NE 18:09:40 16° NE 18:11:42 10° NNE visible
19 Nov 4.7 19:49:53 25° NNW 19:49:53 25° NNW 19:51:54 10° NNW visible
20 Nov 4.5 19:12:50 24° N 19:12:50 24° N 19:15:00 10° N visible
20 Nov 5.6 20:53:02 14° NW 20:53:02 14° NW 20:53:55 10° NNW visible
21 Nov 4.5 18:35:46 20° NNE 18:35:46 20° NNE 18:37:51 10° N visible
21 Nov 5.1 20:15:58 20° NNW 20:15:58 20° NNW 20:17:29 10° NNW visible
22 Nov 4.8 17:58:42 14° NE 17:58:42 14° NE 18:00:16 10° NNE visible
22 Nov 4.7 19:38:55 23° N 19:38:55 23° N 19:40:46 10° N visible
23 Nov 4.6 19:01:51 21° N 19:01:51 21° N 19:03:47 10° N visible
23 Nov 5.6 20:42:03 15° NNW 20:42:03 15° NNW 20:42:56 10° NNW visible
24 Nov 4.7 18:24:47 17° NNE 18:24:47 17° NNE 18:26:33 10° N visible
24 Nov 5.1 20:04:59 19° NNW 20:04:59 19° NNW 20:06:24 10° NNW visible
25 Nov 4.9 17:47:42 12° NE 17:47:42 12° NE 17:48:40 10° NNE visible
25 Nov 4.8 19:27:55 21° N 19:27:55 21° N 19:29:36 10° N visible
25 Nov 6.0 21:08:07 10° NW 21:08:07 10° NW 21:08:10 10° NW visible
26 Nov 4.7 18:50:50 19° NNE 18:50:50 19° NNE 18:52:33 10° N visible
26 Nov 5.5 20:31:03 15° NNW 20:31:03 15° NNW 20:31:54 10° NNW visible
27 Nov 4.8 18:13:46 15° NNE 18:13:46 15° NNE 18:15:11 10° NNE visible
27 Nov 5.1 19:53:58 18° NNW 19:53:58 18° NNW 19:55:17 10° NNW visible
28 Nov 5.0 17:36:41 10° NE 17:36:41 10° NE 17:36:44 10° NNE visible
28 Nov 4.8 19:16:53 19° N 19:16:53 19° N 19:18:24 10° N visible
28 Nov 5.9 20:57:06 11° NNW 20:57:06 11° NNW 20:57:14 10° NNW visible
